Regional Weather Roundup
Issued by NWS

Home | Current Version | Previous Version | Text Only | Print | Product List | Glossary On
Versions: 1 2 3 4 5 6 7 8 9 10 11 12 13 14 15 16 17 18 19 20 21 22 23 24 25 26 27 28 29 30 31 32 33 34 35 36 37 38 39 40 41 42 43 44 45 46 47 48 49 50
000
ASUS43 KTOP 071059
RWRKS

WEATHER ROUNDUP FOR KANSAS
NATIONAL WEATHER SERVICE GOODLAND KS
500 AM CST SUN FEB 07 2016

NOTE:  "FAIR" INDICATES FEW OR NO CLOUDS BELOW 12,000 FEET WITH NO
SIGNIFICANT WEATHER AND/OR OBSTRUCTIONS TO VISIBILITY.

KSZ001>006-013>018-027>032-041>047-071200-
NORTHWEST KANSAS

CITY           SKY/WX    TMP DP  RH WIND       PRES   REMARKS
GOODLAND       CLOUDY    29  20  69 W13       30.13R WCI  19
HAYS           PTCLDY    37  21  52 NW8       30.09S
HILL CITY      CLOUDY    36  28  73 NW3       30.10S
RUSSELL        CLOUDY    36  29  75 NW9       30.08R
$$

KSZ061>065-074>080-084>089-071200-
SOUTHWEST KANSAS

CITY           SKY/WX    TMP DP  RH WIND       PRES   REMARKS
DODGE CITY     CLOUDY    32  22  66 N9        30.12R
ELKHART          N/A     36  19  50 N10         N/A  WCI  28
GARDEN CITY    CLOUDY    32  24  72 N9        30.10F
GREAT BEND     PTCLDY    36  25  64 NW10      30.10R WCI  28
LIBERAL        CLOUDY    30  18  59 N9        30.11R
$$

KSZ066>073-081>083-090>101-071200-
SOUTHEAST KANSAS

CITY           SKY/WX    TMP DP  RH WIND       PRES   REMARKS
CHANUTE        CLOUDY    36  27  69 SW14      30.05F WCI  27
COFFEYVILLE    CLOUDY    34  27  75 S10       30.11F WCI  26
HUTCHINSON     CLOUDY    34  22  61 NW7       30.07R
MEDICINE LODGE   N/A     33  19  56 NW6       30.09R
NEWTON         PTCLDY    34  21  60 W12       30.07R WCI  25
PARSONS        PTCLDY    35  27  72 S6        30.09F
WICHITA INTL   CLOUDY    32  24  72 SW5       30.07F
WICHITA JABRA  CLOUDY    34  25  69 SW9       30.06F
WINFIELD       CLOUDY    34  26  72 SW7       30.10F
$$

KSZ007>012-019>026-033>040-048>060-102>105-071200-
NORTHEAST KANSAS

CITY           SKY/WX    TMP DP  RH WIND       PRES   REMARKS
CONCORDIA      PTCLDY    36  28  73 W9        30.04R
EMPORIA        CLOUDY    38  24  57 W15G26    30.02R WCI  29
LAWRENCE       CLOUDY    39  26  59 SW7       30.00F
MANHATTAN      PTCLDY    36  26  67 VRB3      30.03R
OLATHE IND     CLOUDY    37  27  67 SW15      30.00R WCI  28
OLATHE EXE     CLOUDY    38  26  62 SW14      30.00R WCI  30
SALINA         CLOUDY    38  28  67 NW8       30.07R
TOPEKA BILLARD CLOUDY    40  25  55 W8        30.00S
TOPEKA FORBES  CLOUDY    39  26  59 SW12      29.99S WCI  32
$$




USA.gov is the U.S. government's official web portal to all federal, state and local government web resources and services.